Vertical_Velocity
-2 -2 -1 -1 1 -9 -1 9 -8 6 12 2 -2 -37 2 -18 4 14 -2 -2 2 -4 14 4 2 -1 0 1 0 -0 0 -0 -3 -1 -2 4 -1 -6 -2 2 0 0 3 0 0 2 -2 1 2
-1 -1 -1 -1 -2 13 18 -10 4 5 -2 3 14 6 -15 19 10 -1 2 -5 2 -5 4 1 2 2 1 -1 -1 -0 0 -2 -0 -2 -3 0 -0 1 -5 -1 2 2 3 -1 2 -3 -5 1 -7
1 -0 0 5 -1 -1 17 -7 -2 4 -2 -2 -4 1 -15 19 -0 -15 -4 0 -2 -4 -2 -2 1 1 3 4 3 2 2 -1 -2 1 2 2 -0 2 -5 -7 -0 2 2 1 3 1 -2 -5 1
-1 -4 -6 -1 6 5 -3 1 0 6 1 3 7 6 13 9 -9 2 2 6 16 5 7 6 1 1 2 2 1 1 3 1 -2 -1 3 -2 4 -0 -1 -3 -2 2 2 1 3 -4 -2 0 -3
-1 -3 7 -4 1 -5 -1 -3 -2 -0 7 1 7 10 2 11 -24 2 8 17 9 10 7 4 2 3 2 6 4 2 1 1 2 -1 0 2 2 3 5 -2 1 -3 2 -2 2 0 2 1 -0
6 -5 3 10 3 -5 -1 -3 -1 -4 3 1 2 7 -0 -24 -5 2 16 8 -22 76 14 4 16 11 5 6 4 6 7 4 2 1 -3 5 4 0 0 0 1 -5 2 -0 0 -0 0 -2 -2
3 -1 10 -5 0 -2 -2 -3 0 -3 4 -2 -1 3 0 -2 -6 5 -1 13 0 -14 -0 3 18 53 16 31 22 11 6 4 4 1 2 -6 2 -2 5 2 -1 2 2 -1 -0 -1 -1 -3 -3
-0 -8 -4 -2 9 1 -1 0 3 1 -1 -3 -1 7 -5 -5 -7 0 15 5 7 -1 -1 -2 9 26 -14 -22 -14 19 15 5 8 7 0 3 -5 3 -2 -2 1 2 3 5 2 2 -2 1 -2
-5 2 5 -2 -4 6 -4 -3 -0 2 -2 -3 -2 2 2 -1 2 4 2 3 6 9 4 6 7 78 32 -18 -14 -32 7 -1 0 10 5 6 2 1 -0 -1 1 2 -0 3 3 -4 -2 -2 -2
-3 -3 5 -2 3 0 -3 2 -1 1 5 -2 -2 -1 1 -1 -0 -0 4 5 6 3 11 17 38 -8 -5 2 8 -28 -2 11 -13 -10 6 8 3 -2 3 -2 -1 4 1 -1 3 -2 -1 -5 3
-1 -3 -3 3 0 0 4 2 3 0 7 4 -2 -4 -1 -1 -3 -5 3 4 3 12 14 -4 10 4 12 2 1 6 -18 4 -7 4 1 4 -1 -2 -0 -0 -3 5 -2 0 1 0 2 8 -6
-1 2 -4 -0 -4 -1 1 -1 3 2 1 -0 -2 -3 -2 5 1 2 -1 3 5 5 -3 3 6 22 -5 3 -8 3 -36 -3 0 1 6 -1 2 -1 2 -2 -3 -0 7 -1 -1 -0 -5 6 8
0 2 -1 -2 -2 0 -2 1 4 1 -1 -1 -2 -2 0 0 -0 9 5 -1 -0 11 -1 25 34 13 3 -1 -9 -3 -7 6 0 2 -1 3 3 2 1 4 -1 0 -2 -3 -1 1 3 1 -7
-1 1 -1 -3 -3 -2 1 1 1 -6 2 2 -2 -4 -6 -3 -0 -2 0 7 7 -15 -0 -8 -6 1 -13 -14 -1 -7 6 2 1 2 -3 9 2 1 -0 2 3 1 2 2 0 2 0 -3 0
-1 2 -4 1 -4 -5 -4 -7 5 -4 -2 4 -3 -1 -5 2 4 8 16 -5 3 -1 4 6 -2 -16 5 12 8 7 0 1 -0 -1 4 0 2 -3 6 2 -0 -2 2 2 -3 -1 -0 -4 2
-0 -11 18 -6 -5 -6 -8 19 -6 -3 -2 0 2 1 0 -2 2 -9 -15 -2 -7 2 1 -1 9 10 2 -2 1 0 -0 3 3 2 2 2 -1 -2 2 4 2 -1 1 -1 1 -5 1 -1 -3
-8 19 -7 2 -5 2 -1 8 -6 -6 -3 5 -2 -3 0 1 0 -3 -1 -2 1 -0 1 4 0 4 4 5 4 1 1 -2 1 -0 1 4 -1 2 4 1 1 -2 2 -4 -2 0 0 -4 1
5 1 -5 -4 1 -6 -1 0 3 -4 -2 1 -1 -2 -2 1 -2 1 1 -3 -1 -4 -4 -0 -0 -2 1 -1 -0 -5 -3 -1 0 -2 1 0 -2 2 0 -1 -1 1 -1 -1 -2 -0 -0 1 -1
9 0 1 0 -5 -4 7 -2 5 -2 -1 -1 0 1 -2 -3 -0 -0 -3 -1 -2 -2 -5 -1 -3 -1 -1 -0 -1 -1 1 2 -2 -0 1 -3 1 4 3 -1 2 -1 -1 -1 -1 -1 0 -1 0
1 2 2 -8 1 -1 4 3 -2 -22 -1 0 -1 1 0 -2 -0 0 0 -2 -2 -0 -0 -1 1 2 1 -1 -0 0 1 1 -0 -3 -2 -2 6 4 1 1 1 -2 -1 -0 -1 2 -1 -2 0
-3 2 3 1 -5 -5 -5 3 1 2 0 -2 -2 1 -2 -2 -3 -2 -1 -0 -2 -1 -0 -2 1 -1 -3 -1 -1 -0 -2 -1 -0 1 2 10 3 -0 2 0 -1 -1 -1 0 1 1 2 -2 0
5 -1 -2 -1 -4 12 -5 8 -8 1 2 -2 -2 -4 -3 -2 2 -3 -4 -6 -3 -3 -4 -4 -4 -3 -0 -1 0 -1 3 1 0 0 -1 2 -2 1 2 -0 0 -0 -1 1 1 1 1 3 -2
12 -3 -1 -0 -1 -4 -2 4 21 -9 -3 3 4 -0 -2 -3 -5 -4 -3 1 3 -2 -2 -1 1 -2 -2 0 -0 -1 -0 0 -2 2 -1 1 5 2 1 -0 2 1 3 2 2 1 2 -1 -2
-3 0 -3 -3 1 7 -0 0 1 21 2 -2 5 3 9 1 -5 -2 5 5 1 1 -1 -1 -1 1 0 0 0 4 3 3 4 2 2 3 -0 2 -1 2 1 1 -0 -1 -3 1 0 -5 1
2 -0 6 7 7 0 -3 -0 -9 -3 -5 -4 -1 3 1 0 0 1 -5 -5 -1 -6 2 1 -1 -1 0 2 2 4 4 -0 4 6 -1 3 3 3 5 6 0 1 -1 0 -3 8 -1 1 0
-8 2 2 -2 -1 -1 -6 -3 16 -5 -3 -2 -3 -2 1 -0 1 -5 -2 2 3 5 2 2 1 2 1 1 -2 1 -8 -5 -14 -4 7 1 -3 6 3 1 3 -1 0 3 -1 3 -12 -6 -2
-6 -3 -1 -1 -5 0 -1 -5 -10 -3 -5 1 0 1 1 1 4 2 2 -4 1 -0 1 4 6 2 -0 2 -3 1 2 -3 3 -5 3 0 0 3 4 4 4 4 6 6 9 11 4 -5 1
-4 2 -1 -3 1 0 0 -2 2 2 0 -1 1 0 2 3 4 6 4 3 4 2 6 6 7 1 5 5 8 1 4 9 9 7 4 4 5 5 3 2 3 7 15 -0 6 3 -2 5 2
-2 -0 -2 0 -2 1 0 -3 -11 3 1 1 -6 -7 -4 -4 -3 0 0 -1 -3 1 2 1 3 3 2 3 3 1 3 2 1 2 4 4 9 4 -5 -3 3 14 -1 1 -0 6 -0 10 1
8 10 1 4 1 -1 1 -25 5 -4 3 3 2 -1 -5 -5 -2 -1 -3 0 1 1 2 3 0 2 1 -0 0 2 -1 1 1 -4 -13 -7 -0 4 7 8 19 -3 -6 -2 12 10 5 2 -4
Height
3146 3146 3146 3146 3152 3146 3139 3139 3140 3140 3140 3140 3137 3142 3142 3139 3140 3144 3139 3138 3139 3139 3143 3144 3147 3150 3154 3158 3161 3164 3167 3169 3171 3173 3175 3176 3178 3180 3181 3182 3183 3184 3185 3185 3186 3188 3187 3187 3186
3145 3145 3145 3145 3147 3139 3135 3139 3140 3139 3136 3135 3135 3132 3138 3138 3137 3137 3138 3137 3138 3137 3140 3143 3145 3148 3152 3155 3159 3162 3165 3168 3170 3172 3175 3176 3179 3180 3181 3183 3184 3185 3186 3187 3187 3189 3188 3188 3187
3144 3143 3146 3145 3143 3140 3136 3139 3138 3136 3133 3132 3134 3134 3135 3134 3133 3136 3137 3137 3136 3134 3135 3138 3143 3146 3150 3153 3157 3160 3163 3167 3169 3171 3174 3176 3178 3179 3181 3183 3185 3187 3187 3188 3188 3189 3189 3189 3187
3142 3143 3144 3143 3140 3140 3140 3138 3136 3133 3130 3131 3132 3135 3133 3131 3133 3133 3134 3133 3133 3134 3134 3137 3141 3145 3149 3152 3156 3159 3163 3166 3168 3170 3173 3175 3177 3180 3181 3183 3185 3187 3187 3188 3188 3189 3188 3188 3188
3142 3142 3143 3141 3139 3139 3138 3136 3133 3132 3131 3130 3129 3129 3130 3129 3131 3130 3127 3128 3130 3133 3134 3137 3141 3144 3147 3150 3154 3158 3162 3164 3166 3169 3172 3175 3176 3179 3181 3182 3184 3185 3187 3187 3187 3188 3188 3188 3187
3143 3142 3141 3137 3138 3138 3137 3135 3133 3131 3129 3129 3129 3128 3127 3128 3128 3128 3126 3127 3124 3112 3128 3136 3140 3142 3144 3148 3151 3156 3160 3163 3165 3167 3171 3175 3177 3179 3181 3182 3183 3185 3186 3186 3187 3187 3187 3188 3187
3142 3142 3140 3139 3138 3138 3137 3134 3132 3130 3128 3128 3128 3127 3127 3126 3128 3126 3126 3127 3125 3123 3129 3134 3137 3133 3137 3139 3144 3150 3156 3161 3164 3167 3171 3173 3176 3179 3181 3182 3184 3185 3185 3186 3186 3186 3186 3186 3187
3140 3141 3140 3138 3137 3138 3136 3133 3131 3129 3127 3127 3126 3126 3124 3125 3125 3124 3123 3127 3128 3128 3130 3132 3133 3132 3130 3127 3134 3146 3155 3160 3164 3168 3170 3172 3176 3180 3182 3183 3184 3184 3184 3185 3185 3185 3186 3187 3186
3139 3141 3137 3137 3137 3137 3135 3133 3131 3128 3126 3124 3122 3122 3122 3120 3121 3122 3122 3124 3126 3126 3126 3128 3130 3112 3120 3132 3136 3139 3152 3157 3164 3169 3170 3172 3176 3179 3180 3181 3182 3183 3184 3184 3184 3185 3185 3186 3184
3138 3138 3136 3136 3136 3135 3133 3132 3130 3128 3125 3123 3120 3119 3120 3119 3119 3119 3120 3121 3122 3122 3124 3125 3123 3130 3125 3132 3132 3134 3146 3149 3158 3165 3170 3172 3175 3177 3179 3180 3181 3183 3183 3183 3184 3184 3184 3184 3183
3137 3136 3135 3135 3133 3132 3131 3130 3129 3128 3126 3124 3120 3116 3115 3116 3117 3117 3118 3118 3119 3121 3121 3121 3121 3124 3129 3131 3133 3136 3144 3150 3155 3164 3170 3173 3174 3175 3177 3179 3181 3181 3182 3183 3182 3183 3183 3183 3181
3135 3134 3132 3131 3130 3130 3130 3129 3128 3127 3125 3122 3119 3116 3114 3114 3114 3114 3115 3116 3117 3118 3120 3122 3124 3126 3126 3129 3134 3137 3141 3148 3156 3164 3170 3172 3173 3175 3176 3178 3181 3181 3182 3181 3181 3180 3180 3180 3178
3134 3132 3129 3127 3128 3128 3129 3128 3127 3125 3124 3121 3118 3116 3113 3113 3112 3112 3113 3114 3114 3116 3118 3118 3119 3122 3124 3130 3133 3140 3144 3153 3159 3164 3168 3171 3173 3174 3176 3177 3178 3179 3180 3179 3178 3177 3176 3177 3178
3133 3131 3129 3129 3129 3129 3128 3126 3126 3123 3123 3121 3119 3117 3115 3115 3111 3110 3111 3112 3112 3111 3114 3114 3122 3124 3125 3133 3139 3144 3150 3156 3160 3164 3167 3169 3171 3173 3175 3177 3177 3178 3178 3177 3175 3175 3176 3175 3173
3132 3132 3130 3129 3129 3129 3125 3126 3126 3122 3122 3120 3120 3119 3118 3115 3107 3109 3109 3111 3112 3113 3114 3117 3122 3125 3134 3137 3141 3146 3151 3156 3160 3163 3166 3168 3170 3172 3173 3174 3175 3175 3174 3174 3174 3174 3172 3171 3171
3132 3131 3128 3128 3128 3127 3125 3123 3123 3121 3120 3120 3119 3120 3119 3120 3117 3117 3117 3119 3119 3121 3124 3126 3128 3133 3139 3142 3145 3148 3151 3154 3159 3162 3164 3166 3168 3170 3171 3172 3171 3172 3172 3172 3170 3170 3169 3168 3167
3129 3126 3128 3128 3126 3127 3125 3123 3121 3121 3120 3118 3119 3119 3119 3120 3121 3121 3123 3124 3125 3127 3129 3131 3134 3137 3140 3142 3146 3148 3151 3154 3157 3160 3162 3164 3165 3167 3168 3169 3168 3168 3168 3168 3166 3166 3165 3164 3162
3124 3125 3125 3125 3125 3124 3123 3122 3121 3119 3119 3119 3119 3119 3120 3121 3121 3124 3125 3126 3128 3129 3131 3133 3136 3139 3141 3144 3146 3148 3151 3153 3156 3158 3160 3162 3163 3165 3165 3165 3165 3165 3164 3163 3163 3162 3162 3160 3159
3125 3125 3124 3123 3123 3123 3121 3119 3119 3118 3118 3119 3119 3120 3120 3122 3123 3124 3125 3127 3129 3131 3133 3135 3137 3139 3142 3144 3147 3149 3151 3153 3154 3156 3157 3159 3160 3161 3162 3162 3162 3161 3160 3159 3159 3158 3158 3156 3155
3125 3124 3123 3122 3122 3120 3119 3118 3117 3118 3118 3119 3120 3120 3121 3121 3122 3125 3126 3128 3129 3131 3134 3135 3137 3140 3142 3144 3146 3148 3150 3151 3153 3154 3155 3156 3157 3158 3158 3157 3157 3157 3156 3156 3155 3154 3154 3152 3150
3122 3123 3122 3122 3120 3118 3116 3115 3116 3117 3117 3118 3119 3120 3120 3121 3122 3124 3126 3128 3130 3132 3134 3136 3138 3140 3142 3144 3145 3147 3148 3150 3151 3152 3152 3153 3154 3153 3153 3153 3153 3153 3152 3151 3150 3150 3149 3145 3143
3119 3120 3120 3120 3119 3115 3115 3110 3114 3114 3114 3115 3117 3118 3119 3120 3121 3123 3125 3127 3129 3131 3132 3134 3136 3137 3139 3141 3143 3145 3146 3146 3147 3148 3149 3148 3148 3148 3148 3148 3148 3148 3146 3146 3146 3144 3141 3139 3135
3119 3117 3117 3117 3117 3117 3115 3114 3108 3112 3113 3112 3113 3115 3117 3118 3120 3121 3123 3124 3126 3128 3130 3132 3133 3135 3136 3138 3140 3141 3142 3143 3143 3144 3143 3143 3143 3143 3143 3143 3142 3142 3141 3140 3138 3136 3135 3132 3129
3114 3115 3115 3116 3117 3113 3113 3114 3105 3108 3110 3110 3110 3110 3112 3114 3116 3118 3121 3122 3124 3126 3127 3128 3130 3132 3133 3134 3136 3137 3139 3138 3139 3138 3138 3137 3136 3136 3136 3136 3136 3135 3134 3133 3131 3129 3127 3124 3121
3113 3115 3112 3114 3112 3109 3111 3112 3107 3108 3107 3107 3107 3107 3107 3108 3111 3114 3116 3118 3120 3122 3124 3125 3127 3129 3130 3131 3132 3133 3134 3133 3133 3133 3132 3131 3130 3129 3129 3130 3129 3127 3126 3125 3124 3121 3119 3115 3112
3110 3112 3109 3107 3107 3106 3109 3106 3103 3105 3104 3103 3103 3103 3102 3102 3104 3108 3111 3114 3116 3118 3120 3122 3123 3125 3126 3127 3128 3127 3127 3128 3128 3127 3126 3124 3123 3122 3122 3122 3121 3120 3118 3116 3114 3111 3108 3106 3105
3107 3108 3109 3109 3109 3109 3104 3104 3102 3102 3101 3101 3100 3099 3099 3099 3100 3103 3106 3109 3111 3113 3116 3118 3119 3120 3121 3122 3122 3123 3122 3123 3122 3120 3118 3116 3115 3115 3115 3116 3114 3113 3111 3108 3104 3102 3099 3096 3094
3103 3104 3107 3107 3106 3103 3099 3101 3099 3101 3100 3100 3099 3098 3097 3097 3098 3099 3101 3103 3105 3107 3110 3111 3114 3115 3116 3116 3117 3117 3117 3117 3115 3113 3112 3110 3108 3109 3109 3107 3106 3104 3100 3098 3096 3093 3090 3088 3088
3099 3100 3102 3102 3102 3099 3098 3097 3098 3099 3099 3098 3098 3097 3097 3097 3096 3097 3098 3099 3101 3102 3103 3105 3107 3108 3109 3110 3110 3111 3110 3109 3107 3106 3105 3103 3102 3102 3100 3097 3095 3093 3093 3091 3088 3085 3083 3081 3078
3093 3095 3096 3097 3098 3098 3098 3097 3095 3095 3095 3095 3095 3095 3095 3095 3095 3095 3095 3096 3096 3097 3099 3101 3102 3103 3103 3103 3103 3104 3103 3102 3100 3098 3097 3096 3095 3094 3091 3089 3086 3086 3084 3082 3080 3079 3077 3073 3069